[ hide orbit diagram ]
For accurate long-term ephemerides, please instead use our Horizons system.This orbit viewer was implemented using two-body methods, and hence should not be used for determining accurate long-term trajectories (over several years or decades) or planetary encounter circumstances.
Orbital Elements at Epoch 2459200.5 (2020-Dec-17.0) TDB
Reference: JPL 39 (heliocentric ecliptic J2000)
Element | Value | Uncertainty (1-sigma) | Units |
e | .1841153688165163 | 3.3928e-08 | |
a | 2.529585427450937 | 7.0575e-09 | au |
q | 2.063849873522923 | 8.7955e-08 | au |
i | 3.743916539893891 | 4.3145e-06 | deg |
node | 332.7423706308294 | 3.7381e-05 | deg |
peri | 61.56550140769375 | 3.9658e-05 | deg |
M | 337.8848423426684 | 1.3791e-05 | deg |
tp | 2459290.773439941085 (2021-Mar-17.27343994) | 5.6402e-05 | TDB |
period | 1469.509685725297 4.02 | 6.1499e-06 1.684e-08 | d yr |
n | .2449796714489275 | 1.0252e-09 | deg/d |
Q | 2.995320981378951 | 8.3569e-09 | au |
|
| | Orbit Determination Parameters
Additional Information
|
[ hide covariance matrix ]
Orbital Elements at Epoch 2457274.5 (2015-Sep-09.0) TDB
Reference: JPL 39 (heliocentric ecliptic J2000)
Element | Value | Uncertainty (1-sigma) | Units |
e | .186628576768801 | 3.3916e-08 | |
q | 2.056603980464933 | 8.8084e-08 | au |
tp | 2457820.752329011291 (2017-Mar-08.25232901) | 5.3675e-05 | TDB |
node | 332.9006610556401 | 3.7442e-05 | deg |
peri | 61.42378570083686 | 3.9627e-05 | deg |
i | 3.742443906711963 | 4.3122e-06 | deg |
|
| | Orbit Determination Parameters
Additional Information
|
Orbit Covariance (6×6)
|
|
e |
q |
tp |
node |
peri |
i |
e |
1.150263504766822E-15 |
-2.981866607757231E-15 |
-1.155768618927973E-12 |
7.012371914128029E-15 |
-2.428681568819347E-13 |
1.521502944288273E-16 |
q |
-2.981866607757231E-15 |
7.758712534131761E-15 |
2.98448852683379E-12 |
-1.801913365134719E-14 |
6.238270031264807E-13 |
-3.886795281444612E-16 |
tp |
-1.155768618927973E-12 |
2.98448852683379E-12 |
2.88099540525033E-9 |
-1.581313049056899E-11 |
6.963585700860712E-10 |
1.087008357286696E-12 |
node |
7.012371914128029E-15 |
-1.801913365134719E-14 |
-1.581313049056899E-11 |
1.401911360671794E-9 |
-1.402135128793084E-9 |
-2.208485552263224E-13 |
peri |
-2.428681568819347E-13 |
6.238270031264807E-13 |
6.963585700860712E-10 |
-1.402135128793084E-9 |
1.570267512445133E-9 |
4.999190056352568E-13 |
i |
1.521502944288273E-16 |
-3.886795281444612E-16 |
1.087008357286696E-12 |
-2.208485552263224E-13 |
4.999190056352568E-13 |
1.859468249762522E-11 |
|
Physical Parameter Table
Parameter |
Symbol |
Value |
Units |
Sigma |
Reference |
Notes |
absolute magnitude |
H |
13.12 |
|
n/a |
E2021B10 |
|
diameter |
diameter |
5.828 |
km |
0.955 |
urn:nasa:pds:neowise_diameters_albedos::2.0[mainbelt] (http://adsabs.harvard.edu/abs/2011ApJ...741...68M) |
|
rotation period |
rot_per |
4.7889 |
h |
n/a |
LCDB (Rev. 2020-October); Warner et al., 2009 |
Published Reference List: [Higgins, D.J. (2005) Minor Planet Bull. 32, 36-38.] |
geometric albedo |
albedo |
0.394 |
|
0.050 |
urn:nasa:pds:neowise_diameters_albedos::2.0[mainbelt] (http://adsabs.harvard.edu/abs/2011ApJ...741...68M) |
|
|
2351 O'Higgins (1964 VD) Discovered 1964-Nov-03 by Goethe Link Observatory at Brooklyn |
Discovered by the Indiana Asteroid Program, Goethe Link Observatory, University of Indiana. This program was conceived and directed by F. K. Edmondson; the plates were blinked and measured astrometrically by B. Potter and, following her retirement, by D. Owings; and the photometry was performed under the direction of T. Gehrels. During the years 1947-1967, in which the plates were exposed, a large number of people participated in various aspects of the program. |
Reference: DISCOVERY.DB | Last Updated: 2003-08-29 |
|
Alternate Designations
1964 VD = 1976 SO2 = 2019 GS30 |
|
|